EWG6TA EDDK-LDSP

Flight info

Callsign EWG6TA
Flight time N/A
Altitude 35000
Route KUMIK1R KUMIK L603 TESGA DCT ESATI DCT DETEV DCT DINKU M867 XERUM DCT BAVAX DCT RADIZ DCT ALIVO DCT NUPSO
Aircraft A320/M-SDE3FGHIRWY/LB1

Departure

Time 2026-04-21 15:48
Airport Cologne Bonn Airport (EDDK)

Arrival

Time N/A
Airport Split Saint Jerome Airport (LDSP)
Time Latitude Longitude Altitude Speed Heading
2026-04-21 15:14 50.87932 7.12304 232 ft 0 kts 175°
2026-04-21 15:20 50.87933 7.12304 232 ft 0 kts 175°
2026-04-21 15:30 50.87939 7.12304 232 ft 2 kts 165°
2026-04-21 15:30 50.87955 7.12297 232 ft 2 kts 172°
2026-04-21 15:30 50.87971 7.12295 236 ft 2 kts 188°
2026-04-21 15:30 50.87987 7.12301 235 ft 2 kts 204°
2026-04-21 15:31 50.88002 7.12313 234 ft 2 kts 215°
2026-04-21 15:31 50.88015 7.12328 234 ft 2 kts 216°
2026-04-21 15:31 50.88029 7.12343 233 ft 2 kts 212°
2026-04-21 15:31 50.88043 7.12357 237 ft 2 kts 207°
2026-04-21 15:32 50.88058 7.12368 235 ft 2 kts 194°
2026-04-21 15:32 50.88073 7.12371 236 ft 1 kts 149°
2026-04-21 15:32 50.88076 7.12370 236 ft 0 kts 130°
2026-04-21 15:34 50.88066 7.12392 235 ft 4 kts 124°
2026-04-21 15:34 50.88054 7.12419 233 ft 2 kts 130°
2026-04-21 15:35 50.88032 7.12452 232 ft 8 kts 136°
2026-04-21 15:35 50.87992 7.12506 232 ft 7 kts 140°
2026-04-21 15:35 50.87960 7.12552 232 ft 6 kts 136°
2026-04-21 15:35 50.87934 7.12589 232 ft 5 kts 138°
2026-04-21 15:36 50.87888 7.12613 232 ft 8 kts 183°
2026-04-21 15:36 50.87835 7.12620 233 ft 7 kts 163°
2026-04-21 15:36 50.87792 7.12668 232 ft 11 kts 138°
2026-04-21 15:36 50.87729 7.12755 232 ft 11 kts 137°
2026-04-21 15:37 50.87676 7.12833 232 ft 10 kts 137°
2026-04-21 15:37 50.87631 7.12900 232 ft 8 kts 137°
2026-04-21 15:37 50.87587 7.12962 232 ft 9 kts 137°
2026-04-21 15:37 50.87540 7.13031 235 ft 9 kts 137°
2026-04-21 15:38 50.87493 7.13098 232 ft 13 kts 137°
2026-04-21 15:38 50.87416 7.13211 232 ft 15 kts 137°
2026-04-21 15:38 50.87338 7.13321 232 ft 15 kts 138°
2026-04-21 15:38 50.87267 7.13423 233 ft 12 kts 138°
2026-04-21 15:39 50.87217 7.13502 238 ft 8 kts 136°
2026-04-21 15:39 50.87182 7.13550 237 ft 5 kts 139°
2026-04-21 15:39 50.87165 7.13573 237 ft 2 kts 139°
2026-04-21 15:39 50.87125 7.13631 239 ft 13 kts 137°
2026-04-21 15:40 50.87068 7.13714 241 ft 9 kts 138°
2026-04-21 15:40 50.87030 7.13769 242 ft 6 kts 135°
2026-04-21 15:40 50.86995 7.13820 244 ft 8 kts 138°
2026-04-21 15:40 50.86966 7.13862 246 ft 3 kts 138°
2026-04-21 15:41 50.86949 7.13885 247 ft 10 kts 137°
2026-04-21 15:41 50.86903 7.13953 252 ft 6 kts 137°
2026-04-21 15:41 50.86891 7.13971 253 ft 0 kts 138°
2026-04-21 15:41 50.86863 7.14011 255 ft 8 kts 136°
2026-04-21 15:42 50.86824 7.14068 255 ft 7 kts 137°
2026-04-21 15:42 50.86788 7.14116 255 ft 8 kts 144°
2026-04-21 15:42 50.86737 7.14139 256 ft 6 kts 157°
2026-04-21 15:42 50.86703 7.14182 258 ft 8 kts 137°
2026-04-21 15:43 50.86668 7.14231 260 ft 9 kts 137°
2026-04-21 15:43 50.86620 7.14302 261 ft 10 kts 137°
2026-04-21 15:43 50.86554 7.14398 262 ft 13 kts 137°
2026-04-21 15:43 50.86503 7.14472 266 ft 8 kts 138°
2026-04-21 15:44 50.86445 7.14557 269 ft 16 kts 136°
2026-04-21 15:44 50.86369 7.14665 274 ft 12 kts 139°
2026-04-21 15:44 50.86318 7.14739 277 ft 8 kts 137°
2026-04-21 15:44 50.86292 7.14778 278 ft 3 kts 137°
2026-04-21 15:45 50.86285 7.14787 279 ft 2 kts 137°
2026-04-21 15:45 50.86258 7.14827 280 ft 11 kts 137°
2026-04-21 15:45 50.86204 7.14905 283 ft 8 kts 137°
2026-04-21 15:45 50.86173 7.14950 285 ft 4 kts 137°
2026-04-21 15:46 50.86160 7.14969 285 ft 1 kts 137°
2026-04-21 15:46 50.86121 7.15024 287 ft 13 kts 138°
2026-04-21 15:46 50.86064 7.15115 289 ft 10 kts 129°
2026-04-21 15:46 50.86049 7.15236 294 ft 15 kts 78°
2026-04-21 15:47 50.86126 7.15344 293 ft 16 kts 11°
2026-04-21 15:47 50.86245 7.15323 290 ft 20 kts 349°
2026-04-21 15:47 50.86424 7.15242 283 ft 30 kts 330°
2026-04-21 15:47 50.86616 7.14982 274 ft 58 kts 318°
2026-04-21 15:48 50.87100 7.14282 251 ft 128 kts 318°
2026-04-21 15:48 50.87873 7.13136 392 ft 164 kts 320°
2026-04-21 15:48 50.88667 7.11851 1181 ft 166 kts 319°
2026-04-21 15:48 50.89657 7.11039 1792 ft 165 kts
2026-04-21 15:49 50.90810 7.11453 2076 ft 181 kts 32°
2026-04-21 15:49 50.91978 7.12481 2476 ft 200 kts 30°
2026-04-21 15:49 50.93180 7.13643 3194 ft 203 kts 44°
2026-04-21 15:49 50.94035 7.15487 3795 ft 219 kts 63°
2026-04-21 15:50 50.94756 7.17761 4226 ft 241 kts 63°
2026-04-21 15:50 50.95513 7.20187 5040 ft 248 kts 63°
2026-04-21 15:50 50.96279 7.22651 5932 ft 251 kts 64°
2026-04-21 15:50 50.97060 7.25153 6818 ft 255 kts 64°
2026-04-21 15:51 50.97859 7.27694 7657 ft 259 kts 64°
2026-04-21 15:51 50.98671 7.30267 8505 ft 263 kts 64°
2026-04-21 15:51 50.99493 7.32874 9365 ft 266 kts 64°
2026-04-21 15:51 51.00328 7.35519 10204 ft 270 kts 64°
2026-04-21 15:52 51.01090 7.38298 10731 ft 285 kts 72°
2026-04-21 15:52 51.01491 7.41505 10973 ft 309 kts 85°
2026-04-21 15:52 51.01500 7.43817 11156 ft 323 kts 93°
2026-04-21 15:52 51.00844 7.48552 12019 ft 334 kts 105°
2026-04-21 15:53 51.00151 7.52083 12754 ft 337 kts 105°
2026-04-21 15:53 50.99451 7.55666 13489 ft 341 kts 105°
2026-04-21 15:53 50.98748 7.59270 14195 ft 344 kts 105°
2026-04-21 15:53 50.98035 7.62910 14849 ft 347 kts 105°
2026-04-21 15:54 50.97313 7.66585 15493 ft 350 kts 105°
2026-04-21 15:54 50.96581 7.70295 16147 ft 354 kts 105°
2026-04-21 15:54 50.95841 7.74034 16768 ft 357 kts 105°
2026-04-21 15:54 50.95092 7.77811 17393 ft 360 kts 105°
2026-04-21 15:55 50.94242 7.81563 18007 ft 365 kts 112°
2026-04-21 15:55 50.92994 7.85047 18605 ft 371 kts 121°
2026-04-21 15:55 50.91561 7.88462 19141 ft 374 kts 121°
2026-04-21 15:55 50.90115 7.91911 19677 ft 377 kts 121°
2026-04-21 15:56 50.88662 7.95387 20223 ft 380 kts 121°
2026-04-21 15:56 50.87195 7.98895 20760 ft 384 kts 121°
2026-04-21 15:56 50.85714 8.02424 21282 ft 387 kts 121°
2026-04-21 15:56 50.84220 8.05985 21770 ft 390 kts 121°
2026-04-21 15:57 50.82707 8.09585 22258 ft 394 kts 121°
2026-04-21 15:57 50.81186 8.13201 22745 ft 397 kts 121°
2026-04-21 15:57 50.79653 8.16843 23221 ft 400 kts 121°
2026-04-21 15:57 50.78104 8.20519 23694 ft 403 kts 121°
2026-04-21 15:58 50.76544 8.24213 24074 ft 406 kts 121°
2026-04-21 15:58 50.74965 8.27943 24437 ft 409 kts 121°
2026-04-21 15:58 50.73380 8.31684 24800 ft 412 kts 121°
2026-04-21 15:58 50.71776 8.35448 25155 ft 415 kts 123°
2026-04-21 15:59 50.70596 8.37833 25377 ft 418 kts 129°
2026-04-21 15:59 50.68497 8.41047 25713 ft 424 kts 139°
2026-04-21 15:59 50.66066 8.43680 26254 ft 422 kts 149°
2026-04-21 15:59 50.63550 8.45580 28155 ft 372 kts 152°
2026-04-21 16:00 50.61392 8.47173 30270 ft 333 kts 150°
2026-04-21 16:00 50.59481 8.48813 31386 ft 302 kts 148°
2026-04-21 16:00 50.55718 8.52264 31176 ft 329 kts 148°
2026-04-21 16:01 50.53577 8.54193 29873 ft 382 kts 148°
2026-04-21 16:01 50.51192 8.56274 29793 ft 396 kts 149°
2026-04-21 16:01 50.48767 8.58340 30250 ft 397 kts 150°
2026-04-21 16:01 50.46342 8.60410 30667 ft 396 kts 147°
2026-04-21 16:02 50.44055 8.62827 31042 ft 396 kts 140°
2026-04-21 16:02 50.42010 8.65626 31401 ft 395 kts 134°
2026-04-21 16:02 50.40031 8.68617 31875 ft 391 kts 134°
2026-04-21 16:02 50.38089 8.71547 32458 ft 387 kts 134°
2026-04-21 16:03 50.36149 8.74469 32860 ft 386 kts 134°
2026-04-21 16:03 50.34205 8.77393 33173 ft 389 kts 135°
2026-04-21 16:03 50.32246 8.80339 33406 ft 392 kts 135°
2026-04-21 16:03 50.30270 8.83308 33625 ft 396 kts 135°
2026-04-21 16:04 50.28277 8.86298 33876 ft 399 kts 135°
2026-04-21 16:04 50.26264 8.89307 34166 ft 400 kts 135°
2026-04-21 16:04 50.24248 8.92321 34411 ft 402 kts 135°
2026-04-21 16:04 50.22224 8.95347 34635 ft 404 kts 135°
2026-04-21 16:05 50.20191 8.98387 34835 ft 406 kts 135°
2026-04-21 16:05 50.18147 9.01436 35030 ft 408 kts 135°
2026-04-21 16:05 50.16089 9.04500 35178 ft 411 kts 135°
2026-04-21 16:05 50.14002 9.07601 35224 ft 417 kts 135°
2026-04-21 16:06 50.09773 9.13861 35217 ft 420 kts 135°
2026-04-21 16:06 50.05532 9.20141 35215 ft 421 kts 135°
2026-04-21 16:07 50.01285 9.26425 35216 ft 422 kts 136°
2026-04-21 16:07 49.97024 9.32709 35209 ft 422 kts 136°
2026-04-21 16:08 49.90615 9.42121 35208 ft 424 kts 136°
2026-04-21 16:09 49.86326 9.48394 35206 ft 424 kts 136°
2026-04-21 16:09 49.82057 9.54626 35205 ft 425 kts 136°
2026-04-21 16:10 49.77753 9.60897 35205 ft 425 kts 136°
2026-04-21 16:10 49.73441 9.67165 35196 ft 426 kts 136°
2026-04-21 16:11 49.69116 9.73424 35199 ft 426 kts 136°
2026-04-21 16:11 49.64781 9.79669 35196 ft 427 kts 137°
2026-04-21 16:12 49.61873 9.83848 35193 ft 427 kts 137°
2026-04-21 16:12 49.57225 9.90519 35196 ft 428 kts 137°
2026-04-21 16:13 49.52869 9.96773 35192 ft 428 kts 137°
2026-04-21 16:13 49.48501 10.03019 35191 ft 429 kts 137°
2026-04-21 16:14 49.44124 10.09258 35198 ft 429 kts 137°
2026-04-21 16:14 49.39733 10.15503 35192 ft 430 kts 137°
2026-04-21 16:15 49.35339 10.21728 35200 ft 430 kts 137°
2026-04-21 16:15 49.30937 10.27960 35201 ft 431 kts 137°
2026-04-21 16:16 49.26526 10.34187 35204 ft 431 kts 138°
2026-04-21 16:16 49.21886 10.39888 35203 ft 430 kts 150°
2026-04-21 16:17 49.16742 10.44572 35206 ft 431 kts 150°
2026-04-21 16:17 49.11595 10.49254 35210 ft 431 kts 151°
2026-04-21 16:18 49.07726 10.52764 35210 ft 432 kts 151°
2026-04-21 16:18 49.02562 10.57447 35217 ft 432 kts 151°
2026-04-21 16:19 48.97388 10.62130 35218 ft 432 kts 151°
2026-04-21 16:19 48.92219 10.66794 35212 ft 433 kts 151°
2026-04-21 16:20 48.87039 10.71457 35206 ft 433 kts 151°
2026-04-21 16:20 48.81920 10.76309 35188 ft 435 kts 143°
2026-04-21 16:21 48.77593 10.82683 35185 ft 436 kts 132°
2026-04-21 16:21 48.73521 10.89552 35172 ft 437 kts 133°
2026-04-21 16:22 48.69438 10.96382 35166 ft 438 kts 133°
2026-04-21 16:22 48.65332 11.03218 35164 ft 438 kts 133°
2026-04-21 16:23 48.61229 11.10035 35164 ft 438 kts 133°
2026-04-21 16:23 48.58170 11.15107 35164 ft 439 kts 133°
2026-04-21 16:24 48.54083 11.21885 35163 ft 439 kts 133°
2026-04-21 16:24 48.49966 11.28714 35162 ft 440 kts 133°
2026-04-21 16:25 48.45844 11.35522 35159 ft 440 kts 134°
2026-04-21 16:25 48.41705 11.42313 35158 ft 440 kts 134°
2026-04-21 16:26 48.37557 11.49110 35160 ft 441 kts 134°
2026-04-21 16:26 48.33416 11.55898 35162 ft 441 kts 134°
2026-04-21 16:27 48.29258 11.62684 35161 ft 441 kts 134°
2026-04-21 16:27 48.25058 11.69414 35164 ft 441 kts 137°
2026-04-21 16:28 48.20592 11.75713 35163 ft 440 kts 140°
2026-04-21 16:28 48.16003 11.81783 35159 ft 441 kts 141°
2026-04-21 16:29 48.11460 11.87868 35153 ft 441 kts 140°
2026-04-21 16:29 48.06931 11.94056 35150 ft 441 kts 140°
2026-04-21 16:30 48.02402 12.00265 35141 ft 441 kts 140°
2026-04-21 16:30 47.97873 12.06442 35146 ft 442 kts 140°
2026-04-21 16:31 47.93326 12.12611 35136 ft 442 kts 140°
2026-04-21 16:31 47.88764 12.18780 35142 ft 442 kts 140°
2026-04-21 16:32 47.84204 12.24928 35134 ft 442 kts 140°
2026-04-21 16:32 47.79636 12.31077 35134 ft 443 kts 141°
2026-04-21 16:33 47.75071 12.37207 35134 ft 443 kts 141°
2026-04-21 16:33 47.70486 12.43359 35125 ft 443 kts 141°
2026-04-21 16:34 47.65903 12.49495 35131 ft 444 kts 141°
2026-04-21 16:34 47.61208 12.55411 35127 ft 441 kts 147°
2026-04-21 16:35 47.56264 12.60818 35125 ft 442 kts 147°
2026-04-21 16:35 47.51325 12.66240 35123 ft 442 kts 147°
2026-04-21 16:36 47.46383 12.71642 35125 ft 442 kts 147°
2026-04-21 16:36 47.41428 12.77029 35121 ft 442 kts 147°
2026-04-21 16:37 47.36472 12.82408 35123 ft 442 kts 147°
2026-04-21 16:37 47.31547 12.87756 35121 ft 442 kts 147°
2026-04-21 16:38 47.26597 12.93112 35115 ft 442 kts 147°
2026-04-21 16:38 47.21636 12.98463 35107 ft 442 kts 148°
2026-04-21 16:39 47.16696 13.03787 35101 ft 441 kts 147°
2026-04-21 16:39 47.11730 13.09129 35096 ft 441 kts 147°
2026-04-21 16:40 47.06777 13.14440 35080 ft 440 kts 148°
2026-04-21 16:40 47.01837 13.19722 35079 ft 439 kts 148°
2026-04-21 16:41 46.97729 13.24100 35076 ft 439 kts 148°
2026-04-21 16:41 46.91965 13.30241 35060 ft 438 kts 148°
2026-04-21 16:42 46.87027 13.35469 35054 ft 438 kts 148°
2026-04-21 16:42 46.82090 13.40688 35047 ft 438 kts 148°
2026-04-21 16:43 46.77144 13.45914 35038 ft 439 kts 148°
2026-04-21 16:43 46.72198 13.51133 35031 ft 440 kts 148°
2026-04-21 16:44 46.67273 13.56314 35028 ft 440 kts 148°
2026-04-21 16:44 46.62290 13.61542 35024 ft 441 kts 148°
2026-04-21 16:45 46.57299 13.66767 35024 ft 442 kts 148°
2026-04-21 16:45 46.52308 13.71985 35022 ft 443 kts 149°
2026-04-21 16:46 46.47296 13.77198 35030 ft 443 kts 149°
2026-04-21 16:46 46.43096 13.81560 35027 ft 443 kts 149°
2026-04-21 16:47 46.38121 13.86728 35027 ft 443 kts 149°
2026-04-21 16:47 46.33104 13.91916 35030 ft 444 kts 149°
2026-04-21 16:48 46.28080 13.97101 35034 ft 444 kts 149°
2026-04-21 16:48 46.23052 14.02292 35040 ft 444 kts 149°
2026-04-21 16:49 46.18024 14.07469 35042 ft 443 kts 149°
2026-04-21 16:49 46.12996 14.12623 35041 ft 443 kts 149°
2026-04-21 16:50 46.07970 14.17760 35040 ft 443 kts 149°
2026-04-21 16:50 46.02940 14.22891 35036 ft 443 kts 149°
2026-04-21 16:51 45.97936 14.27979 35034 ft 443 kts 149°
2026-04-21 16:51 45.92899 14.33096 35032 ft 443 kts 150°
2026-04-21 16:52 45.87866 14.38210 35027 ft 444 kts 150°
2026-04-21 16:52 45.82811 14.43319 35030 ft 444 kts 150°
2026-04-21 16:53 45.77764 14.48416 35033 ft 444 kts 150°
2026-04-21 16:53 45.72703 14.53518 35033 ft 444 kts 150°
2026-04-21 16:54 45.67642 14.58600 35037 ft 444 kts 150°
2026-04-21 16:54 45.62579 14.63671 35039 ft 444 kts 150°
2026-04-21 16:55 45.57528 14.68728 35040 ft 443 kts 150°
2026-04-21 16:55 45.52472 14.73771 35042 ft 443 kts 151°
2026-04-21 16:56 45.47263 14.78387 35033 ft 439 kts 155°
2026-04-21 16:56 45.41937 14.82592 35032 ft 438 kts 157°
2026-04-21 16:57 45.36608 14.86803 35030 ft 439 kts 156°
2026-04-21 16:57 45.31343 14.91096 35033 ft 439 kts 155°
2026-04-21 16:58 45.26057 14.95441 35023 ft 439 kts 155°
2026-04-21 16:58 45.20763 14.99757 35024 ft 439 kts 156°
2026-04-21 16:59 45.15462 15.04058 35033 ft 439 kts 155°
2026-04-21 16:59 45.10167 15.08357 35035 ft 439 kts 155°
2026-04-21 17:00 45.04879 15.12646 35036 ft 438 kts 155°
2026-04-21 17:00 45.00471 15.16207 35035 ft 438 kts 155°
2026-04-21 17:01 44.94288 15.21190 35026 ft 437 kts 155°
2026-04-21 17:01 44.88991 15.25450 35027 ft 438 kts 155°
2026-04-21 17:02 44.83699 15.29689 35025 ft 438 kts 155°
2026-04-21 17:02 44.78434 15.33901 35023 ft 437 kts 155°
2026-04-21 17:03 44.73153 15.38123 35017 ft 437 kts 155°
2026-04-21 17:03 44.67866 15.42336 35015 ft 437 kts 155°
2026-04-21 17:04 44.62581 15.46542 35011 ft 436 kts 155°
2026-04-21 17:04 44.57296 15.50735 35010 ft 436 kts 155°
2026-04-21 17:05 44.52008 15.54922 35002 ft 436 kts 155°
2026-04-21 17:05 44.46721 15.59098 35000 ft 436 kts 156°
2026-04-21 17:06 44.41433 15.63265 34999 ft 436 kts 156°
2026-04-21 17:06 44.36152 15.67426 34986 ft 436 kts 156°
2026-04-21 17:07 44.30864 15.71585 34980 ft 436 kts 156°
2026-04-21 17:07 44.25570 15.75730 34977 ft 436 kts 156°
2026-04-21 17:08 44.20278 15.79872 34977 ft 436 kts 156°
2026-04-21 17:08 44.14905 15.83750 34966 ft 431 kts 165°
2026-04-21 17:09 44.06341 15.85855 34956 ft 415 kts 184°
2026-04-21 17:09 44.00532 15.86359 34961 ft 416 kts 184°
2026-04-21 17:10 43.94794 15.86878 34940 ft 416 kts 183°
2026-04-21 17:10 43.89013 15.87393 34949 ft 416 kts 184°
2026-04-21 17:11 43.83228 15.87896 34942 ft 417 kts 184°
2026-04-21 17:11 43.77441 15.88415 34936 ft 417 kts 184°
2026-04-21 17:12 43.71653 15.88917 34938 ft 417 kts 184°
2026-04-21 17:12 43.65861 15.89416 34937 ft 417 kts 184°
2026-04-21 17:13 43.60067 15.89914 34941 ft 417 kts 184°
2026-04-21 17:13 43.54268 15.90415 34942 ft 417 kts 184°
2026-04-21 17:14 43.48475 15.90916 34943 ft 417 kts 184°
2026-04-21 17:14 43.42681 15.91426 34943 ft 417 kts 183°
2026-04-21 17:15 43.36891 15.91925 34946 ft 417 kts 184°
2026-04-21 17:15 43.33994 15.92398 34944 ft 426 kts 169°
2026-04-21 17:15 43.31294 15.94176 34948 ft 439 kts 145°
2026-04-21 17:16 43.29209 15.97246 34949 ft 445 kts 121°
2026-04-21 17:16 43.27930 16.01055 34952 ft 448 kts 110°
2026-04-21 17:16 43.25718 16.09068 34951 ft 449 kts 109°
2026-04-21 17:17 43.25025 16.13198 34948 ft 443 kts 88°
2026-04-21 17:17 43.25430 16.17304 34949 ft 430 kts 63°
2026-04-21 17:17 43.26861 16.20769 34947 ft 411 kts 39°
2026-04-21 17:17 43.29046 16.23089 34950 ft 389 kts 15°
2026-04-21 17:18 43.31587 16.23987 34952 ft 371 kts 357°
2026-04-21 17:18 43.34165 16.24299 34950 ft 374 kts 358°
2026-04-21 17:18 43.36749 16.24987 34938 ft 387 kts 15°
2026-04-21 17:18 43.39056 16.27024 34948 ft 408 kts 39°
2026-04-21 17:19 43.40690 16.30301 34949 ft 426 kts 64°
2026-04-21 17:19 43.41333 16.34317 34947 ft 439 kts 88°
2026-04-21 17:19 43.40851 16.38478 34947 ft 444 kts 112°
2026-04-21 17:19 43.39306 16.42111 34946 ft 440 kts 136°
2026-04-21 17:20 43.36938 16.44677 34948 ft 429 kts 160°
2026-04-21 17:20 43.34150 16.45800 34947 ft 411 kts 185°
2026-04-21 17:20 43.31405 16.45375 34947 ft 389 kts 208°
2026-04-21 17:20 43.28977 16.43855 34949 ft 381 kts 218°
2026-04-21 17:21 43.24502 16.39987 34948 ft 381 kts 219°
2026-04-21 17:21 43.20018 16.36138 34941 ft 373 kts 229°
2026-04-21 17:22 43.17327 16.30516 34948 ft 348 kts 261°
2026-04-21 17:22 43.17055 16.27272 34948 ft 341 kts 277°
2026-04-21 17:22 43.17513 16.24112 34949 ft 339 kts 291°
2026-04-21 17:23 43.18630 16.21280 34950 ft 340 kts 306°
2026-04-21 17:23 43.20315 16.18997 34951 ft 345 kts 321°
2026-04-21 17:23 43.22465 16.17464 34951 ft 355 kts 336°
2026-04-21 17:23 43.24930 16.16879 34951 ft 368 kts 354°
2026-04-21 17:24 43.27510 16.17430 34950 ft 384 kts 11°
2026-04-21 17:24 43.30038 16.18734 34950 ft 390 kts 14°
2026-04-21 17:24 43.35012 16.21825 34948 ft 398 kts 23°
2026-04-21 17:25 43.37192 16.24280 34950 ft 415 kts 43°
2026-04-21 17:25 43.38755 16.27675 34950 ft 429 kts 63°
2026-04-21 17:25 43.39483 16.31688 34945 ft 440 kts 84°
2026-04-21 17:25 43.39196 16.35894 34948 ft 446 kts 107°
2026-04-21 17:26 43.37876 16.39728 34946 ft 443 kts 130°
2026-04-21 17:26 43.35714 16.42665 34949 ft 434 kts 152°
2026-04-21 17:26 43.33032 16.44388 34949 ft 420 kts 173°
2026-04-21 17:26 43.30227 16.44806 34949 ft 404 kts 193°
2026-04-21 17:27 43.27538 16.44042 34953 ft 390 kts 207°
2026-04-21 17:27 43.25000 16.42731 34954 ft 388 kts 210°
2026-04-21 17:27 43.20121 16.39655 34945 ft 380 kts 221°
2026-04-21 17:28 43.18165 16.37361 34949 ft 364 kts 237°
2026-04-21 17:28 43.16779 16.34523 34952 ft 354 kts 251°
2026-04-21 17:28 43.15972 16.31383 34950 ft 346 kts 264°
2026-04-21 17:28 43.15792 16.28137 34952 ft 341 kts 277°
2026-04-21 17:29 43.16242 16.24970 34953 ft 339 kts 290°
2026-04-21 17:29 43.17290 16.22091 34958 ft 340 kts 303°
2026-04-21 17:29 43.18872 16.19672 34958 ft 344 kts 317°
2026-04-21 17:29 43.20902 16.17889 34949 ft 352 kts 331°
2026-04-21 17:30 43.23272 16.16908 34950 ft 363 kts 346°
2026-04-21 17:30 43.25834 16.16872 34955 ft 377 kts
2026-04-21 17:30 43.28403 16.17831 34955 ft 388 kts 12°
2026-04-21 17:30 43.30939 16.19193 34949 ft 392 kts 15°
2026-04-21 17:31 43.35863 16.22555 34944 ft 406 kts 31°
2026-04-21 17:31 43.37838 16.25408 34950 ft 422 kts 50°
2026-04-21 17:31 43.39137 16.29089 34949 ft 435 kts 70°
2026-04-21 17:32 43.39513 16.31804 34945 ft 442 kts 84°
2026-04-21 17:32 43.38901 16.37385 34950 ft 447 kts 115°
2026-04-21 17:32 43.37918 16.39858 34951 ft 444 kts 130°
2026-04-21 17:32 43.35751 16.42795 34954 ft 435 kts 152°
2026-04-21 17:33 43.33071 16.44536 34947 ft 421 kts 173°
2026-04-21 17:33 43.30231 16.44986 34949 ft 404 kts 192°
2026-04-21 17:33 43.27539 16.44243 34953 ft 389 kts 207°
2026-04-21 17:33 43.25014 16.42942 34948 ft 387 kts 211°
2026-04-21 17:34 43.20136 16.39876 34956 ft 380 kts 220°
2026-04-21 17:34 43.18153 16.37612 34951 ft 364 kts 237°
2026-04-21 17:34 43.16744 16.34801 34957 ft 354 kts 250°
2026-04-21 17:35 43.15901 16.31681 34952 ft 346 kts 263°
2026-04-21 17:35 43.15675 16.28440 34956 ft 341 kts 276°
2026-04-21 17:35 43.16083 16.25269 34955 ft 338 kts 289°
2026-04-21 17:35 43.17088 16.22369 34957 ft 339 kts 302°
2026-04-21 17:36 43.18628 16.19907 34958 ft 344 kts 316°
2026-04-21 17:36 43.20624 16.18052 34960 ft 351 kts 329°
2026-04-21 17:36 43.22964 16.16970 34961 ft 362 kts 344°
2026-04-21 17:36 43.25519 16.16824 34962 ft 376 kts 360°
2026-04-21 17:37 43.28100 16.17693 34972 ft 388 kts 11°
2026-04-21 17:37 43.30642 16.19023 34962 ft 393 kts 14°
2026-04-21 17:37 43.35613 16.22298 34957 ft 405 kts 29°
2026-04-21 17:38 43.37664 16.25042 34970 ft 421 kts 48°
2026-04-21 17:38 43.39067 16.28648 34969 ft 435 kts 68°
2026-04-21 17:38 43.39590 16.32770 34970 ft 444 kts 89°
2026-04-21 17:38 43.39075 16.36960 34970 ft 447 kts 112°
2026-04-21 17:39 43.37578 16.40606 34968 ft 443 kts 134°
2026-04-21 17:39 43.35285 16.43338 34969 ft 433 kts 156°
2026-04-21 17:39 43.32553 16.44842 34960 ft 418 kts 176°
2026-04-21 17:39 43.29721 16.45067 34965 ft 401 kts 196°
2026-04-21 17:40 43.27076 16.44167 34969 ft 388 kts 208°
2026-04-21 17:40 43.24562 16.42832 34957 ft 386 kts 211°
2026-04-21 17:40 43.19746 16.39689 34946 ft 376 kts 224°
2026-04-21 17:41 43.17869 16.37324 34956 ft 361 kts 239°
2026-04-21 17:41 43.16543 16.34468 34961 ft 352 kts 251°
2026-04-21 17:41 43.15782 16.31331 34955 ft 344 kts 264°
2026-04-21 17:41 43.15642 16.28096 34955 ft 339 kts 277°
2026-04-21 17:42 43.16121 16.24946 34959 ft 338 kts 290°
2026-04-21 17:42 43.17189 16.22081 34963 ft 339 kts 304°
2026-04-21 17:42 43.18780 16.19678 34955 ft 344 kts 317°
2026-04-21 17:42 43.20809 16.17888 34960 ft 352 kts 330°
2026-04-21 17:43 43.23184 16.16892 34952 ft 364 kts 345°
2026-04-21 17:43 43.25756 16.16844 34963 ft 378 kts
2026-04-21 17:43 43.28339 16.17790 34973 ft 390 kts 12°
2026-04-21 17:43 43.30883 16.19146 34964 ft 394 kts 15°
2026-04-21 17:44 43.35842 16.22516 34959 ft 408 kts 31°
2026-04-21 17:44 43.37841 16.25370 34974 ft 424 kts 50°
2026-04-21 17:44 43.39150 16.28998 34973 ft 437 kts 69°
2026-04-21 17:45 43.39596 16.33159 34969 ft 446 kts 91°
2026-04-21 17:45 43.39005 16.37345 34969 ft 448 kts 114°
2026-04-21 17:45 43.37408 16.40995 34968 ft 443 kts 136°
2026-04-21 17:45 43.35063 16.43625 34967 ft 431 kts 158°
2026-04-21 17:46 43.32300 16.45010 34962 ft 416 kts 179°
2026-04-21 17:46 43.29479 16.45122 34964 ft 399 kts 197°
2026-04-21 17:46 43.26855 16.44163 34967 ft 387 kts 208°
2026-04-21 17:46 43.24348 16.42822 34963 ft 385 kts 211°
2026-04-21 17:47 43.19556 16.39649 34946 ft 374 kts 225°
2026-04-21 17:47 43.17712 16.37258 34951 ft 360 kts 239°
2026-04-21 17:47 43.16419 16.34387 34953 ft 350 kts 252°
2026-04-21 17:48 43.15578 16.28019 34960 ft 339 kts 278°
2026-04-21 17:48 43.16083 16.24889 34962 ft 337 kts 291°
2026-04-21 17:48 43.17167 16.22036 34961 ft 339 kts 304°
2026-04-21 17:49 43.18767 16.19640 34962 ft 345 kts 317°
2026-04-21 17:49 43.20808 16.17867 34958 ft 353 kts 330°
2026-04-21 17:49 43.23161 16.16894 34962 ft 365 kts 345°
2026-04-21 17:49 43.25738 16.16844 34958 ft 379 kts
2026-04-21 17:50 43.28330 16.17796 34967 ft 391 kts 12°
2026-04-21 17:50 43.30880 16.19160 34964 ft 395 kts 15°
2026-04-21 17:50 43.35845 16.22537 34962 ft 409 kts 31°
2026-04-21 17:51 43.37853 16.25403 34973 ft 425 kts 50°
2026-04-21 17:51 43.39192 16.29084 34973 ft 438 kts 69°
2026-04-21 17:51 43.39640 16.33255 34972 ft 447 kts 91°
2026-04-21 17:51 43.39038 16.37439 34967 ft 449 kts 114°
2026-04-21 17:52 43.37437 16.41083 34969 ft 444 kts 137°
2026-04-21 17:52 43.35090 16.43715 34971 ft 432 kts 158°
2026-04-21 17:52 43.32337 16.45120 34966 ft 416 kts 178°
2026-04-21 17:52 43.29515 16.45270 34965 ft 398 kts 197°
2026-04-21 17:53 43.26924 16.44349 34968 ft 386 kts 208°
2026-04-21 17:53 43.24425 16.43018 34965 ft 384 kts 211°
2026-04-21 17:53 43.19633 16.39881 34952 ft 373 kts 224°
2026-04-21 17:54 43.17742 16.37502 34956 ft 359 kts 239°
2026-04-21 17:54 43.16424 16.34661 34962 ft 350 kts 251°
2026-04-21 17:54 43.15664 16.31544 34957 ft 343 kts 264°
2026-04-21 17:54 43.15498 16.28359 34963 ft 338 kts 276°
2026-04-21 17:55 43.15941 16.25216 34960 ft 337 kts 289°
2026-04-21 17:55 43.16968 16.22336 34963 ft 339 kts 302°
2026-04-21 17:55 43.18541 16.19863 34959 ft 344 kts 315°
2026-04-21 17:55 43.20517 16.18038 34961 ft 352 kts 329°
2026-04-21 17:56 43.22864 16.16950 34963 ft 363 kts 343°
2026-04-21 17:56 43.25431 16.16786 34967 ft 378 kts 359°
2026-04-21 17:56 43.28068 16.17658 34972 ft 392 kts 11°
2026-04-21 17:56 43.30593 16.18982 34969 ft 396 kts 14°
2026-04-21 17:57 43.35601 16.22279 34963 ft 408 kts 28°
2026-04-21 17:57 43.37674 16.25035 34971 ft 425 kts 48°
2026-04-21 17:57 43.39099 16.28657 34973 ft 438 kts 67°
2026-04-21 17:58 43.39658 16.32806 34970 ft 448 kts 88°
2026-04-21 17:58 43.39191 16.37032 34972 ft 450 kts 111°
2026-04-21 17:58 43.37704 16.40781 34972 ft 445 kts 134°
2026-04-21 17:58 43.35425 16.43559 34972 ft 433 kts 156°
2026-04-21 17:59 43.32709 16.45128 34967 ft 418 kts 176°
2026-04-21 17:59 43.29882 16.45449 34966 ft 400 kts 194°
2026-04-21 17:59 43.27223 16.44640 34968 ft 386 kts 208°
2026-04-21 17:59 43.24718 16.43341 34960 ft 384 kts 211°
2026-04-21 18:00 43.19902 16.40271 34956 ft 375 kts 221°
2026-04-21 18:00 43.17960 16.38023 34961 ft 360 kts 237°
2026-04-21 18:00 43.16555 16.35257 34958 ft 350 kts 249°
2026-04-21 18:01 43.15696 16.32180 34961 ft 343 kts 262°
2026-04-21 18:01 43.15424 16.29016 34962 ft 338 kts 274°
2026-04-21 18:01 43.15750 16.25844 34964 ft 336 kts 287°
2026-04-21 18:01 43.16661 16.22905 34964 ft 337 kts 300°
2026-04-21 18:02 43.18109 16.20362 34965 ft 342 kts 312°
2026-04-21 18:02 43.20020 16.18373 34966 ft 350 kts 326°
2026-04-21 18:02 43.22302 16.17105 34965 ft 361 kts 340°
2026-04-21 18:02 43.24842 16.16723 34964 ft 375 kts 355°
2026-04-21 18:03 43.27456 16.17370 34969 ft 391 kts 10°
2026-04-21 18:03 43.30028 16.18661 34970 ft 396 kts 14°
2026-04-21 18:03 43.35082 16.21826 34968 ft 405 kts 24°
2026-04-21 18:04 43.37274 16.24359 34971 ft 422 kts 44°
2026-04-21 18:04 43.38858 16.27829 34973 ft 437 kts 63°
2026-04-21 18:04 43.39631 16.31903 34969 ft 447 kts 83°
2026-04-21 18:04 43.39406 16.36169 34977 ft 451 kts 106°
2026-04-21 18:05 43.38139 16.40079 34973 ft 448 kts 129°
2026-04-21 18:05 43.36014 16.43120 34971 ft 437 kts 151°
2026-04-21 18:05 43.33363 16.44981 34972 ft 422 kts 171°
2026-04-21 18:05 43.30532 16.45580 34968 ft 404 kts 190°
2026-04-21 18:06 43.27822 16.44999 34971 ft 387 kts 207°
2026-04-21 18:06 43.25331 16.43773 34964 ft 384 kts 210°
2026-04-21 18:06 43.20468 16.40818 34963 ft 380 kts 216°
2026-04-21 18:07 43.18376 16.38771 34961 ft 363 kts 233°
2026-04-21 18:07 43.16828 16.36112 34963 ft 352 kts 246°
2026-04-21 18:07 43.15824 16.33107 34961 ft 345 kts 258°
2026-04-21 18:07 43.15390 16.29915 34967 ft 339 kts 271°
2026-04-21 18:08 43.15558 16.26719 34968 ft 337 kts 283°
2026-04-21 18:08 43.16320 16.23697 34968 ft 337 kts 296°
2026-04-21 18:08 43.17628 16.21021 34965 ft 341 kts 309°
2026-04-21 18:08 43.19419 16.18858 34966 ft 348 kts 322°
2026-04-21 18:09 43.21614 16.17374 34969 ft 358 kts 336°
2026-04-21 18:09 43.24099 16.16735 34970 ft 371 kts 351°
2026-04-21 18:09 43.29299 16.18272 34974 ft 395 kts 13°
2026-04-21 18:10 43.34338 16.21286 34974 ft 401 kts 18°
2026-04-21 18:10 43.36674 16.23499 34968 ft 417 kts 38°
2026-04-21 18:10 43.38462 16.26715 34975 ft 433 kts 57°
2026-04-21 18:11 43.39506 16.30640 34975 ft 444 kts 77°
2026-04-21 18:11 43.39587 16.34902 34971 ft 451 kts 99°
2026-04-21 18:11 43.38622 16.38975 34976 ft 449 kts 122°
2026-04-21 18:11 43.36725 16.42324 34971 ft 441 kts 144°
2026-04-21 18:12 43.34193 16.44550 34971 ft 426 kts 166°
2026-04-21 18:12 43.31386 16.45522 34971 ft 410 kts 185°
2026-04-21 18:12 43.28610 16.45293 34969 ft 392 kts 202°
2026-04-21 18:12 43.26052 16.44160 34973 ft 385 kts 210°
2026-04-21 18:13 43.21158 16.41275 34968 ft 382 kts 213°
2026-04-21 18:13 43.18925 16.39437 34961 ft 367 kts 229°
2026-04-21 18:13 43.17225 16.36923 34971 ft 355 kts 242°
2026-04-21 18:14 43.15444 16.30845 34970 ft 340 kts 267°
2026-04-21 18:14 43.15435 16.27630 34969 ft 337 kts 280°
2026-04-21 18:14 43.16032 16.24541 34968 ft 337 kts 292°
2026-04-21 18:15 43.17193 16.21754 34967 ft 340 kts 305°
2026-04-21 18:15 43.18854 16.19427 34968 ft 346 kts 318°
2026-04-21 18:15 43.20938 16.17725 34971 ft 355 kts 332°
2026-04-21 18:15 43.23348 16.16814 34970 ft 367 kts 346°
2026-04-21 18:16 43.25946 16.16855 34972 ft 382 kts
2026-04-21 18:16 43.28507 16.17861 34977 ft 393 kts 12°
2026-04-21 18:16 43.31071 16.19252 34974 ft 397 kts 15°
2026-04-21 18:17 43.36036 16.22722 34963 ft 412 kts 32°
2026-04-21 18:17 43.38005 16.25681 34974 ft 429 kts 51°
2026-04-21 18:17 43.39288 16.29431 34971 ft 441 kts 71°
2026-04-21 18:17 43.39678 16.33640 34971 ft 450 kts 92°
2026-04-21 18:18 43.39019 16.37832 34975 ft 451 kts 115°
2026-04-21 18:18 43.37362 16.41438 34972 ft 444 kts 138°
2026-04-21 18:18 43.34982 16.44019 34973 ft 431 kts 159°
2026-04-21 18:18 43.32217 16.45372 34972 ft 415 kts 179°
2026-04-21 18:19 43.29399 16.45478 34971 ft 397 kts 198°
2026-04-21 18:19 43.26785 16.44522 34977 ft 386 kts 208°
2026-04-21 18:19 43.24291 16.43190 34972 ft 384 kts 211°
2026-04-21 18:20 43.19510 16.40044 34965 ft 372 kts 224°
2026-04-21 18:20 43.16720 16.35856 34969 ft 352 kts 247°
2026-04-21 18:20 43.15572 16.31801 34971 ft 342 kts 263°
2026-04-21 18:21 43.15386 16.28583 34970 ft 338 kts 276°
2026-04-21 18:21 43.15800 16.25438 34971 ft 336 kts 289°
2026-04-21 18:21 43.16795 16.22536 34974 ft 338 kts 301°
2026-04-21 18:21 43.18311 16.20057 34976 ft 343 kts 314°
2026-04-21 18:22 43.19596 16.18699 34973 ft 348 kts 323°
2026-04-21 18:22 43.21816 16.17285 34973 ft 359 kts 337°
2026-04-21 18:22 43.24317 16.16722 34973 ft 372 kts 352°
2026-04-21 18:22 43.26930 16.17162 34972 ft 388 kts
2026-04-21 18:23 43.29479 16.18374 34978 ft 395 kts 13°
2026-04-21 18:23 43.34542 16.21434 34977 ft 402 kts 19°
2026-04-21 18:23 43.36844 16.23721 34970 ft 419 kts 39°
2026-04-21 18:24 43.38583 16.27003 34973 ft 434 kts 58°
2026-04-21 18:24 43.39549 16.30976 34973 ft 445 kts 79°
2026-04-21 18:24 43.39536 16.35248 34974 ft 451 kts 101°
2026-04-21 18:24 43.38477 16.39274 34976 ft 449 kts 124°
2026-04-21 18:25 43.36508 16.42530 34977 ft 440 kts 147°
2026-04-21 18:25 43.33938 16.44647 34976 ft 425 kts 167°
2026-04-21 18:25 43.31117 16.45512 34974 ft 408 kts 186°
2026-04-21 18:25 43.28360 16.45172 34974 ft 391 kts 204°
2026-04-21 18:26 43.25816 16.43994 34974 ft 385 kts 210°
2026-04-21 18:26 43.20927 16.41082 34973 ft 382 kts 214°
2026-04-21 18:26 43.18739 16.39169 34968 ft 366 kts 230°
2026-04-21 18:27 43.17097 16.36599 34973 ft 354 kts 244°
2026-04-21 18:27 43.15986 16.33640 34975 ft 346 kts 256°
2026-04-21 18:27 43.15438 16.30473 34973 ft 340 kts 268°
2026-04-21 18:27 43.15492 16.27261 34976 ft 336 kts 281°
2026-04-21 18:28 43.16139 16.24237 34976 ft 336 kts 294°
2026-04-21 18:28 43.17346 16.21495 34979 ft 340 kts 306°
2026-04-21 18:28 43.19051 16.19216 34976 ft 346 kts 319°
2026-04-21 18:28 43.21169 16.17590 34978 ft 355 kts 333°
2026-04-21 18:29 43.23603 16.16778 34977 ft 368 kts 348°
2026-04-21 18:29 43.26208 16.16938 34977 ft 383 kts
2026-04-21 18:29 43.28797 16.18026 34982 ft 394 kts 12°
2026-04-21 18:30 43.33877 16.20990 34978 ft 399 kts 17°
2026-04-21 18:30 43.36280 16.22999 34968 ft 414 kts 34°
2026-04-21 18:30 43.38179 16.26055 34977 ft 430 kts 53°
2026-04-21 18:30 43.39365 16.29876 34977 ft 443 kts 73°
2026-04-21 18:31 43.39637 16.34112 34977 ft 450 kts 95°
2026-04-21 18:31 43.38855 16.38264 34977 ft 450 kts 118°
2026-04-21 18:31 43.37099 16.41766 34977 ft 443 kts 141°
2026-04-21 18:31 43.34654 16.44202 34978 ft 429 kts 162°
2026-04-21 18:32 43.31866 16.45391 34975 ft 413 kts 181°
2026-04-21 18:32 43.29060 16.45349 34973 ft 395 kts 200°
2026-04-21 18:32 43.26472 16.44307 34980 ft 386 kts 209°
2026-04-21 18:33 43.21550 16.41460 34977 ft 382 kts 213°
2026-04-21 18:33 43.19258 16.39716 34971 ft 370 kts 226°
2026-04-21 18:33 43.17475 16.37286 34977 ft 357 kts 240°
2026-04-21 18:33 43.16225 16.34407 34982 ft 348 kts 253°
2026-04-21 18:34 43.15534 16.31273 34980 ft 341 kts 265°
2026-04-21 18:34 43.15441 16.28057 34976 ft 337 kts 278°
2026-04-21 18:34 43.15954 16.24941 34977 ft 336 kts 291°
2026-04-21 18:34 43.17036 16.22101 34979 ft 339 kts 303°
2026-04-21 18:35 43.18041 16.20447 34979 ft 342 kts 312°
2026-04-21 18:35 43.20668 16.17908 34979 ft 353 kts 330°
2026-04-21 18:35 43.23045 16.16896 34980 ft 365 kts 344°
2026-04-21 18:35 43.25591 16.16812 34981 ft 379 kts 360°
2026-04-21 18:36 43.28191 16.17729 34984 ft 392 kts 11°
2026-04-21 18:36 43.33291 16.20623 34976 ft 399 kts 16°
2026-04-21 18:36 43.35753 16.22437 34968 ft 410 kts 30°
2026-04-21 18:37 43.37795 16.25264 34977 ft 426 kts 49°
2026-04-21 18:37 43.39167 16.28933 34977 ft 440 kts 68°
2026-04-21 18:37 43.39668 16.33118 34975 ft 449 kts 90°
2026-04-21 18:37 43.39131 16.37338 34977 ft 451 kts 113°
2026-04-21 18:38 43.37580 16.41027 34978 ft 445 kts 136°
2026-04-21 18:38 43.35262 16.43734 34981 ft 433 kts 157°
2026-04-21 18:38 43.32520 16.45221 34978 ft 417 kts 177°
2026-04-21 18:38 43.29695 16.45459 34981 ft 400 kts 195°
2026-04-21 18:39 43.27053 16.44593 34987 ft 386 kts 208°
2026-04-21 18:39 43.22107 16.41807 34978 ft 382 kts 213°
2026-04-21 18:40 43.17835 16.37888 34979 ft 360 kts 237°
2026-04-21 18:40 43.16462 16.35086 34979 ft 350 kts 250°
2026-04-21 18:40 43.15855 16.33063 34979 ft 345 kts 258°
2026-04-21 18:40 43.15409 16.28818 34981 ft 338 kts 275°
2026-04-21 18:41 43.15785 16.25618 34980 ft 336 kts 288°
2026-04-21 18:41 43.16724 16.22735 34984 ft 338 kts 300°
2026-04-21 18:41 43.18203 16.20218 34983 ft 343 kts 313°
2026-04-21 18:41 43.20140 16.18269 34983 ft 350 kts 326°
2026-04-21 18:42 43.22440 16.17056 34984 ft 361 kts 341°
2026-04-21 18:42 43.24986 16.16735 34984 ft 375 kts 356°
2026-04-21 18:42 43.27627 16.17457 34984 ft 391 kts 10°
2026-04-21 18:43 43.32701 16.20250 34979 ft 399 kts 16°
2026-04-21 18:43 43.37370 16.24518 34975 ft 423 kts 44°
2026-04-21 18:43 43.38918 16.28019 34977 ft 437 kts 64°
2026-04-21 18:44 43.39640 16.32112 34975 ft 447 kts 84°
2026-04-21 18:44 43.39345 16.36372 34976 ft 451 kts 108°
2026-04-21 18:44 43.38007 16.40231 34980 ft 447 kts 130°
2026-04-21 18:44 43.35838 16.43198 34981 ft 436 kts 152°
2026-04-21 18:45 43.33167 16.44993 34980 ft 421 kts 172°
2026-04-21 18:45 43.30333 16.45518 34978 ft 403 kts 192°
2026-04-21 18:45 43.27636 16.44866 34982 ft 387 kts 207°
2026-04-21 18:46 43.22671 16.42157 34979 ft 383 kts 213°
2026-04-21 18:46 43.18230 16.38476 34985 ft 362 kts 234°
2026-04-21 18:46 43.16733 16.35770 34984 ft 352 kts 247°
2026-04-21 18:47 43.15779 16.32733 34983 ft 344 kts 259°
2026-04-21 18:47 43.15409 16.29534 34983 ft 339 kts 272°
2026-04-21 18:47 43.15642 16.26343 34986 ft 336 kts 285°
2026-04-21 18:47 43.16448 16.23392 34985 ft 337 kts 297°
2026-04-21 18:48 43.17807 16.20766 34988 ft 341 kts 310°
2026-04-21 18:48 43.19645 16.18673 34984 ft 348 kts 323°
2026-04-21 18:48 43.21868 16.17274 34983 ft 358 kts 337°
2026-04-21 18:48 43.24369 16.16731 34984 ft 372 kts 352°
2026-04-21 18:49 43.26980 16.17192 34983 ft 388 kts
2026-04-21 18:49 43.31281 16.19396 34984 ft 397 kts 15°
2026-04-21 18:50 43.36906 16.23815 34976 ft 419 kts 40°
2026-04-21 18:50 43.38619 16.27121 34982 ft 434 kts 59°
2026-04-21 18:50 43.39554 16.31105 34977 ft 445 kts 79°
2026-04-21 18:50 43.39507 16.35384 34977 ft 451 kts 102°
2026-04-21 18:51 43.38413 16.39392 34978 ft 449 kts 125°
2026-04-21 18:51 43.36420 16.42616 34982 ft 439 kts 147°
2026-04-21 18:51 43.33835 16.44691 34983 ft 425 kts 168°
2026-04-21 18:51 43.31005 16.45508 34984 ft 408 kts 187°
2026-04-21 18:52 43.28256 16.45117 34983 ft 390 kts 205°
2026-04-21 18:52 43.23247 16.42510 34984 ft 383 kts 212°
2026-04-21 18:53 43.18661 16.39036 34981 ft 366 kts 231°
2026-04-21 18:53 43.17038 16.36442 34984 ft 354 kts 244°
2026-04-21 18:53 43.15954 16.33464 34982 ft 346 kts 257°
2026-04-21 18:53 43.15445 16.30288 34985 ft 340 kts 269°
2026-04-21 18:54 43.15535 16.27074 34988 ft 336 kts 282°
2026-04-21 18:54 43.16209 16.24062 34989 ft 337 kts 294°
2026-04-21 18:54 43.17449 16.21333 34990 ft 340 kts 307°
2026-04-21 18:54 43.19182 16.19107 34989 ft 346 kts 320°
2026-04-21 18:55 43.20565 16.17984 34987 ft 352 kts 329°
2026-04-21 18:55 43.23775 16.16772 34983 ft 368 kts 348°
2026-04-21 18:55 43.26379 16.16981 34985 ft 384 kts
2026-04-21 18:56 43.31515 16.19530 34985 ft 397 kts 15°
2026-04-21 18:56 43.36416 16.23166 34976 ft 415 kts 36°
2026-04-21 18:56 43.38278 16.26279 34980 ft 431 kts 54°
2026-04-21 18:57 43.39417 16.30142 34978 ft 443 kts 75°
2026-04-21 18:57 43.39614 16.34385 34978 ft 450 kts 96°
2026-04-21 18:57 43.38758 16.38507 34978 ft 450 kts 120°
2026-04-21 18:57 43.36945 16.41949 34981 ft 442 kts 142°
2026-04-21 18:58 43.34466 16.44316 34984 ft 429 kts 163°
2026-04-21 18:58 43.31670 16.45460 34790 ft 412 kts 181°
2026-04-21 18:58 43.28885 16.45383 33882 ft 390 kts 202°
2026-04-21 18:58 43.26334 16.44304 32819 ft 383 kts 208°
2026-04-21 18:59 43.23834 16.43040 31703 ft 378 kts 218°
2026-04-21 18:59 43.21759 16.41049 30934 ft 355 kts 233°
2026-04-21 18:59 43.20261 16.38532 30058 ft 338 kts 248°
2026-04-21 18:59 43.19356 16.35622 28937 ft 328 kts 262°
2026-04-21 19:00 43.19075 16.32549 27779 ft 324 kts 275°
2026-04-21 19:00 43.19383 16.29499 26614 ft 325 kts 287°
2026-04-21 19:00 43.20260 16.26635 25436 ft 330 kts 299°
2026-04-21 19:00 43.21684 16.24134 24269 ft 338 kts 313°
2026-04-21 19:01 43.23570 16.22139 23125 ft 345 kts 320°
2026-04-21 19:01 43.25524 16.20304 20676 ft 350 kts 321°
2026-04-21 19:01 43.27611 16.18331 17582 ft 378 kts 321°
2026-04-21 19:01 43.29834 16.16225 14330 ft 399 kts 322°
2026-04-21 19:02 43.32122 16.14055 12374 ft 391 kts 323°
2026-04-21 19:02 43.34309 16.11993 10774 ft 371 kts 324°
2026-04-21 19:02 43.36391 16.10036 9235 ft 354 kts 326°
2026-04-21 19:02 43.38386 16.08166 7724 ft 340 kts 326°
2026-04-21 19:03 43.40311 16.06365 6326 ft 329 kts 326°
2026-04-21 19:03 43.42178 16.04621 4921 ft 320 kts 327°
2026-04-21 19:03 43.43785 16.02641 4018 ft 300 kts 306°
2026-04-21 19:03 43.44574 16.00170 3660 ft 270 kts 280°
2026-04-21 19:04 43.44498 15.97734 3282 ft 246 kts 252°
2026-04-21 19:04 43.43659 15.95821 2897 ft 227 kts 221°
2026-04-21 19:04 43.42329 15.94847 2527 ft 212 kts 191°
2026-04-21 19:04 43.40914 15.94534 2538 ft 203 kts 182°
2026-04-21 19:05 43.39640 15.94724 2810 ft 173 kts 160°
2026-04-21 19:05 43.38607 15.95483 2814 ft 165 kts 137°
2026-04-21 19:05 43.37861 15.96670 2808 ft 165 kts 117°
2026-04-21 19:05 43.37442 15.98142 2800 ft 165 kts 98°
2026-04-21 19:06 43.37390 15.99705 2799 ft 163 kts 80°
2026-04-21 19:06 43.37697 16.01201 2804 ft 163 kts 63°
2026-04-21 19:06 43.38319 16.02489 2807 ft 162 kts 46°
2026-04-21 19:06 43.39075 16.03637 2809 ft 163 kts 47°
2026-04-21 19:07 43.39827 16.04798 2808 ft 163 kts 48°
2026-04-21 19:07 43.40575 16.05955 2805 ft 162 kts 48°
2026-04-21 19:07 43.41324 16.07115 2804 ft 162 kts 48°
2026-04-21 19:07 43.42056 16.08295 2816 ft 162 kts 52°
2026-04-21 19:08 43.42726 16.09542 2814 ft 162 kts 53°
2026-04-21 19:08 43.43379 16.10810 2817 ft 161 kts 55°
2026-04-21 19:08 43.44033 16.12075 2822 ft 161 kts 53°
2026-04-21 19:08 43.44476 16.12895 2830 ft 158 kts 53°
2026-04-21 19:09 43.45109 16.14046 2677 ft 145 kts 52°
2026-04-21 19:09 43.45708 16.15124 2517 ft 140 kts 52°
2026-04-21 19:09 43.46298 16.16181 2338 ft 138 kts 52°
2026-04-21 19:09 43.47071 16.17566 2096 ft 137 kts 52°
2026-04-21 19:10 43.47464 16.18268 1978 ft 137 kts 52°
2026-04-21 19:10 43.48237 16.19653 1731 ft 137 kts 52°
2026-04-21 19:10 43.48630 16.20356 1607 ft 137 kts 52°
2026-04-21 19:10 43.49210 16.21395 1409 ft 137 kts 52°
2026-04-21 19:11 43.49793 16.22439 1225 ft 138 kts 51°
2026-04-21 19:11 43.50371 16.23474 1033 ft 138 kts 51°
2026-04-21 19:11 43.50960 16.24529 835 ft 139 kts 51°
2026-04-21 19:11 43.51549 16.25585 663 ft 139 kts 51°
2026-04-21 19:12 43.52143 16.26628 409 ft 137 kts 50°
2026-04-21 19:12 43.52719 16.27665 265 ft 137 kts 51°
2026-04-21 19:12 43.53290 16.28708 121 ft 136 kts 51°
2026-04-21 19:12 43.53766 16.29580 94 ft 118 kts 51°
2026-04-21 19:13 43.53908 16.29854 102 ft 125 kts 53°